Back to catalog

BREEZE-M DEB

TANK

AliveHEO
NORAD 41390·DEBRIS·🇷🇺 Russia

Launched Mar 14, 2016 from Baikonur Cosmodrome

Loading…

Next Passes (next 24 hours)

TLE

FreshSource: Space-Track

Epoch: Sep 14, 2026, 15:27 UTC

1 41390U 16017C   26257.64406549 -.00000040  00000-0  24961-3 0  9992
2 41390  51.6923  30.3214 5968283 315.5050   9.7598  3.82673562146841

Track BREEZE-M DEB in real time with AllMySat

Download on the App Store